Location: Street
(51.1247°N, 2.7429°W)
Time: 06:46:09
(UTC+00:00)

SR - Pass Details

Date: 03 December 2020
Orbit: 575 x 880 km, 66.7° (Epoch: 25 January)

Event Time Altitude Azimuth Distance (km) Brightness Sun altitude
Rises 21:22:50 0° 299° (WNW) 2,982 ? -48.0°
Enters shadow 21:23:30 - 303° (WNW) 2,783 ? -48.0°
Reaches altitude 10° 21:26:16 10° 326° (NW) 2,139 - -48.4°
Maximum altitude 21:28:42 14° 356° (N) 1,952 - -48.8°
Drops below altitude 10° 21:31:14 10° 26° (NNE) 2,241 - -49.1°
Sets 21:35:00 0° 52° (NE) 3,244 - -49.6°
